Terminal Aerodrome Forecast
Issued by NWS

Home | Current Version | Previous Version | Text Only | Print | Product List | Glossary On
Versions: 1 2 3 4 5 6 7 8 9 10 11 12 13 14 15
000
FTUS46 KSGX 222300
TAFSNA
TAF
KSNA 222327Z 2300/2324 VRB04KT P6SM FEW010
     FM231000 VRB03KT P6SM BKN009
     FM231600 VRB06KT P6SM FEW010
     FM231900 23008KT P6SM SKC=

USA.gov is the U.S. government's official web portal to all federal, state and local government web resources and services.